When you browse on this site, cookies collect data to enhance your experience and personalize the content and advertising you see.
Visit our Privacy Policy to learn more. By continuing to use the site, you agree to this use of cookies and data.
  • In Hungary
  • List of Countries
  • For 7 days
  • Water Temperature
  • Weather Map
  • News
  • Weather Widgets
  • user-avatar
    Login

    Hourly Weather Lisicino

    Today, 19 October, Saturday

    Time Temperature Precipitation Wind Pressure Humidity
    00:00 +12°C° 0 mm 2 mps 754 mmHg 89%
    01:00 +12°C° 0 mm 2 mps 754 mmHg 90%
    02:00 +10°C° 0 mm 2 mps 754 mmHg 91%
    03:00 +11°C° 0 mm 1 mps 754 mmHg 92%
    04:00 +10°C° 0 mm 2 mps 755 mmHg 93%
    05:00 +10°C° 0 mm 2 mps 755 mmHg 93%
    06:00 +9°C° 0 mm 2 mps 755 mmHg 93%
    07:00 +10°C° 0 mm 2 mps 755 mmHg 89%
    08:00 +12°C° 0 mm 2 mps 756 mmHg 84%
    09:00 +13°C° 0 mm 2 mps 756 mmHg 80%
    10:00 +14°C° 0 mm 2 mps 756 mmHg 73%
    11:00 +15°C° 0 mm 2 mps 756 mmHg 67%
    12:00 +17°C° 0 mm 2 mps 756 mmHg 60%
    13:00 +17°C° 0 mm 2 mps 756 mmHg 59%
    14:00 +17°C° 0 mm 2 mps 756 mmHg 57%
    15:00 +18°C° 0 mm 2 mps 757 mmHg 56%
    16:00 +16°C° 0 mm 2 mps 757 mmHg 61%
    17:00 +15°C° 0 mm 2 mps 757 mmHg 67%
    18:00 +14°C° 0 mm 2 mps 757 mmHg 72%
    19:00 +13°C° 0 mm 2 mps 757 mmHg 75%
    20:00 +13°C° 0 mm 2 mps 757 mmHg 77%
    21:00 +12°C° 0 mm 2 mps 758 mmHg 80%
    22:00 +12°C° 0 mm 2 mps 758 mmHg 82%
    23:00 +10°C° 0 mm 2 mps 758 mmHg 84%

    Tomorrow, 20 October, Sunday

    Time Temperature Precipitation Wind Pressure Humidity
    00:00 +10°C° 0 mm 2 mps 758 mmHg 86%
    01:00 +11°C° 0 mm 1 mps 758 mmHg 87%
    02:00 +11°C° 0 mm 1 mps 758 mmHg 88%
    03:00 +10°C° 0 mm 1 mps 759 mmHg 89%
    04:00 +10°C° 0 mm 1 mps 759 mmHg 89%
    05:00 +10°C° 0 mm 1 mps 759 mmHg 89%
    06:00 +10°C° 0 mm 1 mps 759 mmHg 90%
    07:00 +11°C° 0 mm 1 mps 759 mmHg 86%
    08:00 +12°C° 0 mm 2 mps 759 mmHg 82%
    09:00 +13°C° 0 mm 2 mps 759 mmHg 78%
    10:00 +14°C° 0 mm 2 mps 759 mmHg 73%
    11:00 +15°C° 0 mm 2 mps 759 mmHg 67%
    12:00 +16°C° 0 mm 2 mps 760 mmHg 62%
    13:00 +17°C° 0 mm 2 mps 759 mmHg 60%
    14:00 +17°C° 0 mm 2 mps 759 mmHg 58%
    15:00 +18°C° 0 mm 2 mps 759 mmHg 56%
    16:00 +17°C° 0 mm 2 mps 759 mmHg 61%
    17:00 +15°C° 0 mm 2 mps 759 mmHg 67%
    18:00 +14°C° 0 mm 1 mps 759 mmHg 72%
    19:00 +14°C° 0 mm 2 mps 759 mmHg 74%
    20:00 +13°C° 0 mm 2 mps 760 mmHg 77%
    21:00 +13°C° 0 mm 2 mps 760 mmHg 79%
    22:00 +13°C° 0 mm 2 mps 760 mmHg 80%
    23:00 +12°C° 0 mm 2 mps 760 mmHg 81%

    Day after tomorrow, 21 October, Monday

    Time Temperature Precipitation Wind Pressure Humidity
    00:00 +11°C° 0 mm 3 mps 760 mmHg 82%
    01:00 +11°C° 0 mm 3 mps 760 mmHg 83%
    02:00 +10°C° 0 mm 3 mps 760 mmHg 84%
    03:00 +10°C° 0 mm 3 mps 760 mmHg 84%
    04:00 +10°C° 0 mm 3 mps 760 mmHg 86%
    05:00 +10°C° 0 mm 3 mps 760 mmHg 88%
    06:00 +9°C° 0 mm 3 mps 760 mmHg 90%
    07:00 +10°C° 0 mm 3 mps 760 mmHg 86%
    08:00 +11°C° 0 mm 3 mps 760 mmHg 82%
    09:00 +12°C° 0 mm 3 mps 760 mmHg 78%
    10:00 +13°C° 0 mm 4 mps 760 mmHg 73%
    11:00 +15°C° 0 mm 4 mps 760 mmHg 68%
    12:00 +17°C° 0 mm 4 mps 760 mmHg 63%
    13:00 +17°C° 0 mm 4 mps 760 mmHg 61%
    14:00 +17°C° 0 mm 5 mps 759 mmHg 59%
    15:00 +17°C° 0 mm 5 mps 759 mmHg 57%
    16:00 +17°C° 0 mm 4 mps 759 mmHg 62%
    17:00 +14°C° 0 mm 4 mps 758 mmHg 66%
    18:00 +13°C° 0 mm 3 mps 758 mmHg 71%
    19:00 +13°C° 0 mm 3 mps 758 mmHg 72%
    20:00 +12°C° 0 mm 4 mps 758 mmHg 73%
    21:00 +12°C° 0 mm 4 mps 758 mmHg 73%
    22:00 +12°C° 0 mm 4 mps 758 mmHg 74%
    23:00 +11°C° 0 mm 4 mps 758 mmHg 75%

    22 October, Tuesday

    Time Temperature Precipitation Wind Pressure Humidity
    00:00 +11°C° 0 mm 4 mps 758 mmHg 75%
    01:00 +11°C° 0 mm 4 mps 757 mmHg 77%
    02:00 +11°C° 0 mm 4 mps 757 mmHg 78%
    03:00 +11°C° 0 mm 4 mps 757 mmHg 79%
    04:00 +10°C° 0 mm 4 mps 757 mmHg 80%
    05:00 +10°C° 0 mm 3 mps 757 mmHg 81%
    06:00 +10°C° 0 mm 3 mps 757 mmHg 82%
    07:00 +11°C° 0 mm 4 mps 757 mmHg 78%
    08:00 +12°C° 0 mm 4 mps 757 mmHg 75%
    09:00 +13°C° 0 mm 4 mps 757 mmHg 71%
    10:00 +14°C° 0 mm 4 mps 757 mmHg 68%
    11:00 +16°C° 0 mm 3 mps 757 mmHg 64%
    12:00 +17°C° 0 mm 3 mps 757 mmHg 61%
    13:00 +17°C° 0 mm 4 mps 757 mmHg 60%
    14:00 +18°C° 0 mm 4 mps 757 mmHg 59%
    15:00 +18°C° 0 mm 4 mps 756 mmHg 58%
    16:00 +17°C° 0 mm 4 mps 756 mmHg 63%
    17:00 +16°C° 0 mm 3 mps 756 mmHg 68%
    18:00 +14°C° 0 mm 3 mps 756 mmHg 72%
    19:00 +14°C° 0 mm 2 mps 756 mmHg 74%
    20:00 +14°C° 0 mm 2 mps 756 mmHg 76%
    21:00 +13°C° 0 mm 2 mps 756 mmHg 78%
    22:00 +13°C° 0 mm 2 mps 756 mmHg 80%
    23:00 +13°C° 0 mm 2 mps 756 mmHg 82%

    23 October, Wednesday

    Time Temperature Precipitation Wind Pressure Humidity
    00:00 +12°C° 0 mm 2 mps 756 mmHg 83%
    01:00 +12°C° 0 mm 2 mps 756 mmHg 84%
    02:00 +12°C° 0 mm 2 mps 756 mmHg 84%
    03:00 +12°C° 0 mm 2 mps 756 mmHg 85%
    04:00 +12°C° 0 mm 2 mps 756 mmHg 86%
    05:00 +12°C° 0 mm 2 mps 756 mmHg 87%
    06:00 +11°C° 0 mm 1 mps 756 mmHg 89%
    07:00 +12°C° 0 mm 2 mps 756 mmHg 85%
    08:00 +13°C° 0 mm 2 mps 756 mmHg 82%
    09:00 +14°C° 0 mm 2 mps 756 mmHg 79%
    10:00 +15°C° 0 mm 2 mps 756 mmHg 73%
    11:00 +16°C° 0 mm 2 mps 756 mmHg 68%
    12:00 +17°C° 0 mm 2 mps 756 mmHg 62%
    13:00 +18°C° 0 mm 3 mps 755 mmHg 60%
    14:00 +18°C° 0 mm 3 mps 755 mmHg 58%
    15:00 +19°C° 0 mm 3 mps 755 mmHg 56%
    16:00 +18°C° 0 mm 3 mps 755 mmHg 62%
    17:00 +16°C° 0 mm 2 mps 755 mmHg 67%
    18:00 +15°C° 0 mm 2 mps 755 mmHg 72%
    19:00 +15°C° 0 mm 2 mps 755 mmHg 74%
    20:00 +14°C° 0 mm 2 mps 755 mmHg 75%
    21:00 +14°C° 0 mm 2 mps 755 mmHg 77%
    22:00 +13°C° 0 mm 2 mps 755 mmHg 78%
    23:00 +13°C° 0 mm 2 mps 755 mmHg 79%

    24 October, Thursday

    Time Temperature Precipitation Wind Pressure Humidity
    00:00 +13°C° 0 mm 2 mps 755 mmHg 80%
    01:00 +13°C° 0 mm 2 mps 755 mmHg 83%
    02:00 +12°C° 0 mm 2 mps 755 mmHg 86%
    03:00 +12°C° 0 mm 2 mps 755 mmHg 88%
    04:00 +12°C° 0 mm 2 mps 755 mmHg 90%
    05:00 +12°C° 0 mm 2 mps 755 mmHg 91%
    06:00 +10°C° 0 mm 2 mps 755 mmHg 92%
    07:00 +12°C° 0 mm 2 mps 755 mmHg 90%
    08:00 +13°C° 0 mm 2 mps 755 mmHg 88%
    09:00 +13°C° 0 mm 2 mps 755 mmHg 85%
    10:00 +15°C° 0 mm 2 mps 755 mmHg 79%
    11:00 +16°C° 0 mm 2 mps 754 mmHg 73%
    12:00 +18°C° 0 mm 3 mps 754 mmHg 67%
    13:00 +18°C° 0 mm 3 mps 754 mmHg 65%
    14:00 +18°C° 0 mm 3 mps 754 mmHg 64%
    15:00 +18°C° 0 mm 3 mps 754 mmHg 62%
    16:00 +17°C° 0 mm 2 mps 754 mmHg 65%
    17:00 +16°C° 0 mm 2 mps 754 mmHg 68%
    18:00 +15°C° 0 mm 2 mps 754 mmHg 71%
    19:00 +15°C° 0 mm 2 mps 754 mmHg 77%
    20:00 +14°C° 0 mm 2 mps 754 mmHg 84%
    21:00 +13°C° 0 mm 3 mps 754 mmHg 90%
    22:00 +12°C° 0 mm 3 mps 754 mmHg 91%
    23:00 +11°C° 0 mm 3 mps 754 mmHg 93%
    Show more